Year,Month,Day,Hour,Minute,Value (Times are PST for temperature in C)
2017,05,28,00,00,14.80
2017,05,28,00,01,14.80
2017,05,28,00,02,14.70
2017,05,28,00,03,14.70
2017,05,28,00,04,14.70
2017,05,28,00,05,14.70
2017,05,28,00,06,14.70
2017,05,28,00,07,14.70
2017,05,28,00,08,14.70
2017,05,28,00,09,14.70
2017,05,28,00,10,14.60
2017,05,28,00,11,14.60
2017,05,28,00,12,14.60
2017,05,28,00,13,14.60
2017,05,28,00,14,14.60
2017,05,28,00,15,14.60
2017,05,28,00,16,14.50
2017,05,28,00,17,14.50
2017,05,28,00,18,14.50
2017,05,28,00,19,14.50
2017,05,28,00,20,14.50
2017,05,28,00,21,14.40
2017,05,28,00,22,14.40
2017,05,28,00,23,14.40
2017,05,28,00,24,14.40
2017,05,28,00,25,14.40
2017,05,28,00,26,14.40
2017,05,28,00,27,14.40
2017,05,28,00,28,14.30
2017,05,28,00,29,14.30
2017,05,28,00,30,14.30
2017,05,28,00,31,14.30
2017,05,28,00,32,14.30
2017,05,28,00,33,14.30
2017,05,28,00,34,14.30
2017,05,28,00,35,14.30
2017,05,28,00,36,14.30
2017,05,28,00,37,14.30
2017,05,28,00,38,14.30
2017,05,28,00,39,14.30
2017,05,28,00,40,14.20
2017,05,28,00,41,14.20
2017,05,28,00,42,14.20
2017,05,28,00,43,14.20
2017,05,28,00,44,14.20
2017,05,28,00,45,14.20
2017,05,28,00,46,14.20
2017,05,28,00,47,14.20
2017,05,28,00,48,14.20
2017,05,28,00,49,14.20
2017,05,28,00,50,14.20
2017,05,28,00,51,14.20
2017,05,28,00,52,14.20
2017,05,28,00,53,14.10
2017,05,28,00,54,14.10
2017,05,28,00,55,14.10
2017,05,28,00,56,14.10
2017,05,28,00,57,14.10
2017,05,28,00,58,14.10
2017,05,28,00,59,14.10
2017,05,28,01,00,14.10
2017,05,28,01,01,14.10
2017,05,28,01,02,14.10
2017,05,28,01,03,14.10
2017,05,28,01,04,14.00
2017,05,28,01,05,14.00
2017,05,28,01,06,14.00
2017,05,28,01,07,14.00
2017,05,28,01,08,14.00
2017,05,28,01,09,13.90
2017,05,28,01,10,13.90
2017,05,28,01,11,13.90
2017,05,28,01,12,13.90
2017,05,28,01,13,13.90
2017,05,28,01,14,13.90
2017,05,28,01,15,13.90
2017,05,28,01,16,13.80
2017,05,28,01,17,13.80
2017,05,28,01,18,13.80
2017,05,28,01,19,13.80
2017,05,28,01,20,13.80
2017,05,28,01,21,13.80
2017,05,28,01,22,13.80
2017,05,28,01,23,13.80
2017,05,28,01,24,13.70
2017,05,28,01,25,13.70
2017,05,28,01,26,13.70
2017,05,28,01,27,13.70
2017,05,28,01,28,13.70
2017,05,28,01,29,13.70
2017,05,28,01,30,13.70
2017,05,28,01,31,13.70
2017,05,28,01,32,13.70
2017,05,28,01,33,13.70
2017,05,28,01,34,13.60
2017,05,28,01,35,13.60
2017,05,28,01,36,13.60
2017,05,28,01,37,13.60
2017,05,28,01,38,13.60
2017,05,28,01,39,13.60
2017,05,28,01,40,13.60
2017,05,28,01,41,13.50
2017,05,28,01,42,13.50
2017,05,28,01,43,13.50
2017,05,28,01,44,13.50
2017,05,28,01,45,13.50
2017,05,28,01,46,13.50
2017,05,28,01,47,13.50
2017,05,28,01,48,13.50
2017,05,28,01,49,13.40
2017,05,28,01,50,13.40
2017,05,28,01,51,13.40
2017,05,28,01,52,13.40
2017,05,28,01,53,13.40
2017,05,28,01,54,13.40
2017,05,28,01,55,13.40
2017,05,28,01,56,13.30
2017,05,28,01,57,13.30
2017,05,28,01,58,13.30
2017,05,28,01,59,13.20
2017,05,28,02,00,13.20
2017,05,28,02,01,13.20
2017,05,28,02,02,13.20
2017,05,28,02,03,13.20
2017,05,28,02,04,13.20
2017,05,28,02,05,13.20
2017,05,28,02,06,13.20
2017,05,28,02,07,13.20
2017,05,28,02,08,13.20
2017,05,28,02,09,13.20
2017,05,28,02,10,13.10
2017,05,28,02,11,13.10
2017,05,28,02,12,13.10
2017,05,28,02,13,13.00
2017,05,28,02,14,13.00
2017,05,28,02,15,13.00
2017,05,28,02,16,12.90
2017,05,28,02,17,12.90
2017,05,28,02,18,12.90
2017,05,28,02,19,12.90
2017,05,28,02,20,12.90
2017,05,28,02,21,12.90
2017,05,28,02,22,12.90
2017,05,28,02,23,12.90
2017,05,28,02,24,12.90
2017,05,28,02,25,12.90
2017,05,28,02,26,12.90
2017,05,28,02,27,12.80
2017,05,28,02,28,12.80
2017,05,28,02,29,12.80
2017,05,28,02,30,12.80
2017,05,28,02,31,12.80
2017,05,28,02,32,12.80
2017,05,28,02,33,12.80
2017,05,28,02,34,12.80
2017,05,28,02,35,12.80
2017,05,28,02,36,12.80
2017,05,28,02,37,12.80
2017,05,28,02,38,12.80
2017,05,28,02,39,12.80
2017,05,28,02,40,12.80
2017,05,28,02,41,12.80
2017,05,28,02,42,12.70
2017,05,28,02,43,12.70
2017,05,28,02,44,12.70
2017,05,28,02,45,12.70
2017,05,28,02,46,12.60
2017,05,28,02,47,12.60
2017,05,28,02,48,12.60
2017,05,28,02,49,12.60
2017,05,28,02,50,12.60
2017,05,28,02,51,12.60
2017,05,28,02,52,12.60
2017,05,28,02,53,12.60
2017,05,28,02,54,12.60
2017,05,28,02,55,12.60
2017,05,28,02,56,12.60
2017,05,28,02,57,12.50
2017,05,28,02,58,12.50
2017,05,28,02,59,12.50
2017,05,28,03,00,12.40
2017,05,28,03,01,12.40
2017,05,28,03,02,12.40
2017,05,28,03,03,12.40
2017,05,28,03,04,12.40
2017,05,28,03,05,12.40
2017,05,28,03,06,12.40
2017,05,28,03,07,12.40
2017,05,28,03,08,12.40
2017,05,28,03,09,12.30
2017,05,28,03,10,12.30
2017,05,28,03,11,12.30
2017,05,28,03,12,12.30
2017,05,28,03,13,12.30
2017,05,28,03,14,12.20
2017,05,28,03,15,12.20
2017,05,28,03,16,12.20
2017,05,28,03,17,12.20
2017,05,28,03,18,12.20
2017,05,28,03,19,12.20
2017,05,28,03,20,12.20
2017,05,28,03,21,12.20
2017,05,28,03,22,12.20
2017,05,28,03,23,12.10
2017,05,28,03,24,12.10
2017,05,28,03,25,12.10
2017,05,28,03,26,12.10
2017,05,28,03,27,12.00
2017,05,28,03,28,12.00
2017,05,28,03,29,12.00
2017,05,28,03,30,12.00
2017,05,28,03,31,12.00
2017,05,28,03,32,12.00
2017,05,28,03,33,12.00
2017,05,28,03,34,12.00
2017,05,28,03,35,12.00
2017,05,28,03,36,12.00
2017,05,28,03,37,12.00
2017,05,28,03,38,11.90
2017,05,28,03,39,11.90
2017,05,28,03,40,11.90
2017,05,28,03,41,11.90
2017,05,28,03,42,11.90
2017,05,28,03,43,11.90
2017,05,28,03,44,11.90
2017,05,28,03,45,11.80
2017,05,28,03,46,11.80
2017,05,28,03,47,11.80
2017,05,28,03,48,11.80
2017,05,28,03,49,11.80
2017,05,28,03,50,11.70
2017,05,28,03,51,11.70
2017,05,28,03,52,11.70
2017,05,28,03,53,11.70
2017,05,28,03,54,11.70
2017,05,28,03,55,11.70
2017,05,28,03,56,11.70
2017,05,28,03,57,11.60
2017,05,28,03,58,11.60
2017,05,28,03,59,11.60
2017,05,28,04,00,11.60
2017,05,28,04,01,11.60
2017,05,28,04,02,11.50
2017,05,28,04,03,11.50
2017,05,28,04,04,11.50
2017,05,28,04,05,11.40
2017,05,28,04,06,11.40
2017,05,28,04,07,11.40
2017,05,28,04,08,11.40
2017,05,28,04,09,11.30
2017,05,28,04,10,11.30
2017,05,28,04,11,11.30
2017,05,28,04,12,11.20
2017,05,28,04,13,11.20
2017,05,28,04,14,11.20
2017,05,28,04,15,11.10
2017,05,28,04,16,11.10
2017,05,28,04,17,11.10
2017,05,28,04,18,11.10
2017,05,28,04,19,11.10
2017,05,28,04,20,11.10
2017,05,28,04,21,11.10
2017,05,28,04,22,11.10
2017,05,28,04,23,11.10
2017,05,28,04,24,11.00
2017,05,28,04,25,11.00
2017,05,28,04,26,11.00
2017,05,28,04,27,11.00
2017,05,28,04,28,11.00
2017,05,28,04,29,11.00
2017,05,28,04,30,11.00
2017,05,28,04,31,11.00
2017,05,28,04,32,11.00
2017,05,28,04,33,11.00
2017,05,28,04,34,11.00
2017,05,28,04,35,11.00
2017,05,28,04,36,11.00
2017,05,28,04,37,11.10
2017,05,28,04,38,11.10
2017,05,28,04,39,11.10
2017,05,28,04,40,11.00
2017,05,28,04,41,11.00
2017,05,28,04,42,11.00
2017,05,28,04,43,11.00
2017,05,28,04,44,11.00
2017,05,28,04,45,11.00
2017,05,28,04,46,11.00
2017,05,28,04,47,10.90
2017,05,28,04,48,10.90
2017,05,28,04,49,10.90
2017,05,28,04,50,10.90
2017,05,28,04,51,10.90
2017,05,28,04,52,10.90
2017,05,28,04,53,10.90
2017,05,28,04,54,10.90
2017,05,28,04,55,10.90
2017,05,28,04,56,10.90
2017,05,28,04,57,10.90
2017,05,28,04,58,10.90
2017,05,28,04,59,10.90
2017,05,28,05,00,10.90
2017,05,28,05,01,10.90
2017,05,28,05,02,10.90
2017,05,28,05,03,10.90
2017,05,28,05,04,10.90
2017,05,28,05,05,10.90
2017,05,28,05,06,10.90
2017,05,28,05,07,10.90
2017,05,28,05,08,10.90
2017,05,28,05,09,10.90
2017,05,28,05,10,10.90
2017,05,28,05,11,10.90
2017,05,28,05,12,10.90
2017,05,28,05,13,10.90
2017,05,28,05,14,10.90
2017,05,28,05,15,10.90
2017,05,28,05,16,10.90
2017,05,28,05,17,10.90
2017,05,28,05,18,10.90
2017,05,28,05,19,10.90
2017,05,28,05,20,10.90
2017,05,28,05,21,10.90
2017,05,28,05,22,10.90
2017,05,28,05,23,10.90
2017,05,28,05,24,10.90
2017,05,28,05,25,10.80
2017,05,28,05,26,10.80
2017,05,28,05,27,10.80
2017,05,28,05,28,10.80
2017,05,28,05,29,10.80
2017,05,28,05,30,10.80
2017,05,28,05,31,10.80
2017,05,28,05,32,10.80
2017,05,28,05,33,10.80
2017,05,28,05,34,10.80
2017,05,28,05,35,10.80
2017,05,28,05,36,10.80
2017,05,28,05,37,10.80
2017,05,28,05,38,10.90
2017,05,28,05,39,10.90
2017,05,28,05,40,10.90
2017,05,28,05,41,10.90
2017,05,28,05,42,10.90
2017,05,28,05,43,10.90
2017,05,28,05,44,10.90
2017,05,28,05,45,10.90
2017,05,28,05,46,10.90
2017,05,28,05,47,10.90
2017,05,28,05,48,10.90
2017,05,28,05,49,10.90
2017,05,28,05,50,11.00
2017,05,28,05,51,11.00
2017,05,28,05,52,11.00
2017,05,28,05,53,11.00
2017,05,28,05,54,11.00
2017,05,28,05,55,11.00
2017,05,28,05,56,11.00
2017,05,28,05,57,10.90
2017,05,28,05,58,11.00
2017,05,28,05,59,11.00
2017,05,28,06,00,11.00
2017,05,28,06,01,11.00
2017,05,28,06,02,11.00
2017,05,28,06,03,11.00
2017,05,28,06,04,11.00
2017,05,28,06,05,11.00
2017,05,28,06,06,10.90
2017,05,28,06,07,10.90
2017,05,28,06,08,11.00
2017,05,28,06,09,11.00
2017,05,28,06,10,11.00
2017,05,28,06,11,11.00
2017,05,28,06,12,11.10
2017,05,28,06,13,11.00
2017,05,28,06,14,11.00
2017,05,28,06,15,11.00
2017,05,28,06,16,11.00
2017,05,28,06,17,11.00
2017,05,28,06,18,11.00
2017,05,28,06,19,11.00
2017,05,28,06,20,11.10
2017,05,28,06,21,11.10
2017,05,28,06,22,11.10
2017,05,28,06,23,11.10
2017,05,28,06,24,11.20
2017,05,28,06,25,11.20
2017,05,28,06,26,11.20
2017,05,28,06,27,11.30
2017,05,28,06,28,11.30
2017,05,28,06,29,11.30
2017,05,28,06,30,11.40
2017,05,28,06,31,11.40
2017,05,28,06,32,11.50
2017,05,28,06,33,11.60
2017,05,28,06,34,11.60
2017,05,28,06,35,11.70
2017,05,28,06,36,11.70
2017,05,28,06,37,11.80
2017,05,28,06,38,11.80
2017,05,28,06,39,11.90
2017,05,28,06,40,12.00
2017,05,28,06,41,12.00
2017,05,28,06,42,12.10
2017,05,28,06,43,12.10
2017,05,28,06,44,12.20
2017,05,28,06,45,12.20
2017,05,28,06,46,12.30
2017,05,28,06,47,12.30
2017,05,28,06,48,12.30
2017,05,28,06,49,12.40
2017,05,28,06,50,12.40
2017,05,28,06,51,12.50
2017,05,28,06,52,12.60
2017,05,28,06,53,12.80
2017,05,28,06,54,12.90
2017,05,28,06,55,13.10
2017,05,28,06,56,13.20
2017,05,28,06,57,13.30
2017,05,28,06,58,13.50
2017,05,28,06,59,13.60
2017,05,28,07,00,13.70
2017,05,28,07,01,13.80
2017,05,28,07,02,14.00
2017,05,28,07,03,14.10
2017,05,28,07,04,14.20
2017,05,28,07,05,14.30
2017,05,28,07,06,14.40
2017,05,28,07,07,14.50
2017,05,28,07,08,14.60
2017,05,28,07,09,14.70
2017,05,28,07,10,14.70
2017,05,28,07,11,14.80
2017,05,28,07,12,14.80
2017,05,28,07,13,14.90
2017,05,28,07,14,15.00
2017,05,28,07,15,15.10
2017,05,28,07,16,15.20
2017,05,28,07,17,15.20
2017,05,28,07,18,15.30
2017,05,28,07,19,15.40
2017,05,28,07,20,15.40
2017,05,28,07,21,15.50
2017,05,28,07,22,15.70
2017,05,28,07,23,15.80
2017,05,28,07,24,16.00
2017,05,28,07,25,16.10
2017,05,28,07,26,16.20
2017,05,28,07,27,16.40
2017,05,28,07,28,16.50
2017,05,28,07,29,16.60
2017,05,28,07,30,16.70
2017,05,28,07,31,16.80
2017,05,28,07,32,16.90
2017,05,28,07,33,17.00
2017,05,28,07,34,17.10
2017,05,28,07,35,17.10
2017,05,28,07,36,17.20
2017,05,28,07,37,17.30
2017,05,28,07,38,17.40
2017,05,28,07,39,17.40
2017,05,28,07,40,17.50
2017,05,28,07,41,17.50
2017,05,28,07,42,17.60
2017,05,28,07,43,17.70
2017,05,28,07,44,17.70
2017,05,28,07,45,17.80
2017,05,28,07,46,17.90
2017,05,28,07,47,18.00
2017,05,28,07,48,18.00
2017,05,28,07,49,18.10
2017,05,28,07,50,18.20
2017,05,28,07,51,18.20
2017,05,28,07,52,18.30
2017,05,28,07,53,18.30
2017,05,28,07,54,18.40
2017,05,28,07,55,18.50
2017,05,28,07,56,18.50
2017,05,28,07,57,18.60
2017,05,28,07,58,18.60
2017,05,28,07,59,18.60
2017,05,28,08,00,18.70
2017,05,28,08,01,18.70
2017,05,28,08,02,18.80
2017,05,28,08,03,18.80
2017,05,28,08,04,18.90
2017,05,28,08,05,18.90
2017,05,28,08,06,19.00
2017,05,28,08,07,19.10
2017,05,28,08,08,19.20
2017,05,28,08,09,19.20
2017,05,28,08,10,19.20
2017,05,28,08,11,19.30
2017,05,28,08,12,19.30
2017,05,28,08,13,19.30
2017,05,28,08,14,19.30
2017,05,28,08,15,19.30
2017,05,28,08,16,19.30
2017,05,28,08,17,19.40
2017,05,28,08,18,19.40
2017,05,28,08,19,19.50
2017,05,28,08,20,19.50
2017,05,28,08,21,19.50
2017,05,28,08,22,19.40
2017,05,28,08,23,19.50
2017,05,28,08,24,19.50
2017,05,28,08,25,19.60
2017,05,28,08,26,19.70
2017,05,28,08,27,19.70
2017,05,28,08,28,19.70
2017,05,28,08,29,19.80
2017,05,28,08,30,19.80
2017,05,28,08,31,19.90
2017,05,28,08,32,19.90
2017,05,28,08,33,19.80
2017,05,28,08,34,19.80
2017,05,28,08,35,19.80
2017,05,28,08,36,19.80
2017,05,28,08,37,19.80
2017,05,28,08,38,19.80
2017,05,28,08,39,19.80
2017,05,28,08,40,19.80
2017,05,28,08,41,19.80
2017,05,28,08,42,19.80
2017,05,28,08,43,19.80
2017,05,28,08,44,19.90
2017,05,28,08,45,19.90
2017,05,28,08,46,19.90
2017,05,28,08,47,19.90
2017,05,28,08,48,19.90
2017,05,28,08,49,19.90
2017,05,28,08,50,19.90
2017,05,28,08,51,19.90
2017,05,28,08,52,19.90
2017,05,28,08,53,19.90
2017,05,28,08,54,19.90
2017,05,28,08,55,19.90
2017,05,28,08,56,20.00
2017,05,28,08,57,20.00
2017,05,28,08,58,20.10
2017,05,28,08,59,20.20
2017,05,28,09,00,20.20
2017,05,28,09,01,20.20
2017,05,28,09,02,20.20
2017,05,28,09,03,20.20
2017,05,28,09,04,20.20
2017,05,28,09,05,20.30
2017,05,28,09,06,20.30
2017,05,28,09,07,20.40
2017,05,28,09,08,20.40
2017,05,28,09,09,20.50
2017,05,28,09,10,20.50
2017,05,28,09,11,20.60
2017,05,28,09,12,20.60
2017,05,28,09,13,20.70
2017,05,28,09,14,20.70
2017,05,28,09,15,20.70
2017,05,28,09,16,20.80
2017,05,28,09,17,20.80
2017,05,28,09,18,20.70
2017,05,28,09,19,20.80
2017,05,28,09,20,20.80
2017,05,28,09,21,20.90
2017,05,28,09,22,20.90
2017,05,28,09,23,20.90
2017,05,28,09,24,20.90
2017,05,28,09,25,20.80
2017,05,28,09,26,20.70
2017,05,28,09,27,20.60
2017,05,28,09,28,20.60
2017,05,28,09,29,20.60
2017,05,28,09,30,20.60
2017,05,28,09,31,20.60
2017,05,28,09,32,20.60
2017,05,28,09,33,20.60
2017,05,28,09,34,20.70
2017,05,28,09,35,20.70
2017,05,28,09,36,20.70
2017,05,28,09,37,20.70
2017,05,28,09,38,20.70
2017,05,28,09,39,20.70
2017,05,28,09,40,20.80
2017,05,28,09,41,20.80
2017,05,28,09,42,20.80
2017,05,28,09,43,20.80
2017,05,28,09,44,20.80
2017,05,28,09,45,20.80
2017,05,28,09,46,20.80
2017,05,28,09,47,20.90
2017,05,28,09,48,21.00
2017,05,28,09,49,21.10
2017,05,28,09,50,21.10
2017,05,28,09,51,21.10
2017,05,28,09,52,21.20
2017,05,28,09,53,21.20
2017,05,28,09,54,21.20
2017,05,28,09,55,21.20
2017,05,28,09,56,21.30
2017,05,28,09,57,21.40
2017,05,28,09,58,21.40
2017,05,28,09,59,21.50
2017,05,28,10,00,21.50
2017,05,28,10,01,21.60
2017,05,28,10,02,21.60
2017,05,28,10,03,21.60
2017,05,28,10,04,21.60
2017,05,28,10,05,21.60
2017,05,28,10,06,21.60
2017,05,28,10,07,21.60
2017,05,28,10,08,21.60
2017,05,28,10,09,21.70
2017,05,28,10,10,21.70
2017,05,28,10,11,21.70
2017,05,28,10,12,21.70
2017,05,28,10,13,21.70
2017,05,28,10,14,21.70
2017,05,28,10,15,21.70
2017,05,28,10,16,21.60
2017,05,28,10,17,21.60
2017,05,28,10,18,21.50
2017,05,28,10,19,21.40
2017,05,28,10,20,21.50
2017,05,28,10,21,21.50
2017,05,28,10,22,21.60
2017,05,28,10,23,21.60
2017,05,28,10,24,21.60
2017,05,28,10,25,21.60
2017,05,28,10,26,21.70
2017,05,28,10,27,21.70
2017,05,28,10,28,21.70
2017,05,28,10,29,21.70
2017,05,28,10,30,21.70
2017,05,28,10,31,21.80
2017,05,28,10,32,21.90
2017,05,28,10,33,21.90
2017,05,28,10,34,21.80
2017,05,28,10,35,21.90
2017,05,28,10,36,21.80
2017,05,28,10,37,21.80
2017,05,28,10,38,21.80
2017,05,28,10,39,21.80
2017,05,28,10,40,21.80
2017,05,28,10,41,21.80
2017,05,28,10,42,21.80
2017,05,28,10,43,21.70
2017,05,28,10,44,21.60
2017,05,28,10,45,21.60
2017,05,28,10,46,21.60
2017,05,28,10,47,21.60
2017,05,28,10,48,21.60
2017,05,28,10,49,21.70
2017,05,28,10,50,21.60
2017,05,28,10,51,21.60
2017,05,28,10,52,21.50
2017,05,28,10,53,21.60
2017,05,28,10,54,21.60
2017,05,28,10,55,21.50
2017,05,28,10,56,21.50
2017,05,28,10,57,21.50
2017,05,28,10,58,21.60
2017,05,28,10,59,21.60
2017,05,28,11,00,21.70
2017,05,28,11,01,21.80
2017,05,28,11,02,21.80
2017,05,28,11,03,21.90
2017,05,28,11,04,21.90
2017,05,28,11,05,22.00
2017,05,28,11,06,22.00
2017,05,28,11,07,22.00
2017,05,28,11,08,22.00
2017,05,28,11,09,22.10
2017,05,28,11,10,22.10
2017,05,28,11,11,22.10
2017,05,28,11,12,22.10
2017,05,28,11,13,22.10
2017,05,28,11,14,22.10
2017,05,28,11,15,22.10
2017,05,28,11,16,22.20
2017,05,28,11,17,22.30
2017,05,28,11,18,22.40
2017,05,28,11,19,22.50
2017,05,28,11,20,22.60
2017,05,28,11,21,22.70
2017,05,28,11,22,22.70
2017,05,28,11,23,22.60
2017,05,28,11,24,22.60
2017,05,28,11,25,22.60
2017,05,28,11,26,22.60
2017,05,28,11,27,22.60
2017,05,28,11,28,22.70
2017,05,28,11,29,22.70
2017,05,28,11,30,22.80
2017,05,28,11,31,22.80
2017,05,28,11,32,22.90
2017,05,28,11,33,23.00
2017,05,28,11,34,23.20
2017,05,28,11,35,23.20
2017,05,28,11,36,23.20
2017,05,28,11,37,23.20
2017,05,28,11,38,23.20
2017,05,28,11,39,23.20
2017,05,28,11,40,23.30
2017,05,28,11,41,23.20
2017,05,28,11,42,23.20
2017,05,28,11,43,23.20
2017,05,28,11,44,23.10
2017,05,28,11,45,23.10
2017,05,28,11,46,23.20
2017,05,28,11,47,23.30
2017,05,28,11,48,23.40
2017,05,28,11,49,23.40
2017,05,28,11,50,23.40
2017,05,28,11,51,23.40
2017,05,28,11,52,23.40
2017,05,28,11,53,23.40
2017,05,28,11,54,23.40
2017,05,28,11,55,23.30
2017,05,28,11,56,23.30
2017,05,28,11,57,23.20
2017,05,28,11,58,23.20
2017,05,28,11,59,23.10
2017,05,28,12,00,23.10
2017,05,28,12,01,23.10
2017,05,28,12,02,23.00
2017,05,28,12,03,23.00
2017,05,28,12,04,22.90
2017,05,28,12,05,22.80
2017,05,28,12,06,22.80
2017,05,28,12,07,22.70
2017,05,28,12,08,22.70
2017,05,28,12,09,22.60
2017,05,28,12,10,22.60
2017,05,28,12,11,22.60
2017,05,28,12,12,22.70
2017,05,28,12,13,22.70
2017,05,28,12,14,22.70
2017,05,28,12,15,22.70
2017,05,28,12,16,22.60
2017,05,28,12,17,22.70
2017,05,28,12,18,22.70
2017,05,28,12,19,22.70
2017,05,28,12,20,22.70
2017,05,28,12,21,22.80
2017,05,28,12,22,22.90
2017,05,28,12,23,23.10
2017,05,28,12,24,23.20
2017,05,28,12,25,23.30
2017,05,28,12,26,23.40
2017,05,28,12,27,23.40
2017,05,28,12,28,23.40
2017,05,28,12,29,23.30
2017,05,28,12,30,23.30
2017,05,28,12,31,23.20
2017,05,28,12,32,23.20
2017,05,28,12,33,23.20
2017,05,28,12,34,23.20
2017,05,28,12,35,23.20
2017,05,28,12,36,23.20
2017,05,28,12,37,23.20
2017,05,28,12,38,23.20
2017,05,28,12,39,23.20
2017,05,28,12,40,23.30
2017,05,28,12,41,23.30
2017,05,28,12,42,23.30
2017,05,28,12,43,23.30
2017,05,28,12,44,23.30
2017,05,28,12,45,23.20
2017,05,28,12,46,23.20
2017,05,28,12,47,23.20
2017,05,28,12,48,23.20
2017,05,28,12,49,23.20
2017,05,28,12,50,23.20
2017,05,28,12,51,23.20
2017,05,28,12,52,23.30
2017,05,28,12,53,23.30
2017,05,28,12,54,23.30
2017,05,28,12,55,23.40
2017,05,28,12,56,23.40
2017,05,28,12,57,23.50
2017,05,28,12,58,23.60
2017,05,28,12,59,23.70
2017,05,28,13,00,23.70
2017,05,28,13,01,23.70
2017,05,28,13,02,23.70
2017,05,28,13,03,23.60
2017,05,28,13,04,23.50
2017,05,28,13,05,23.50
2017,05,28,13,06,23.60
2017,05,28,13,07,23.60
2017,05,28,13,08,23.50
2017,05,28,13,09,23.40
2017,05,28,13,10,23.30
2017,05,28,13,11,23.30
2017,05,28,13,12,23.30
2017,05,28,13,13,23.30
2017,05,28,13,14,23.30
2017,05,28,13,15,23.30
2017,05,28,13,16,23.30
2017,05,28,13,17,23.30
2017,05,28,13,18,23.20
2017,05,28,13,19,23.20
2017,05,28,13,20,23.30
2017,05,28,13,21,23.30
2017,05,28,13,22,23.40
2017,05,28,13,23,23.50
2017,05,28,13,24,23.60
2017,05,28,13,25,23.70
2017,05,28,13,26,23.80
2017,05,28,13,27,23.80
2017,05,28,13,28,23.90
2017,05,28,13,29,23.80
2017,05,28,13,30,23.80
2017,05,28,13,31,23.80
2017,05,28,13,32,23.70
2017,05,28,13,33,23.70
2017,05,28,13,34,23.70
2017,05,28,13,35,23.70
2017,05,28,13,36,23.70
2017,05,28,13,37,23.70
2017,05,28,13,38,23.70
2017,05,28,13,39,23.70
2017,05,28,13,40,23.80
2017,05,28,13,41,23.80
2017,05,28,13,42,23.80
2017,05,28,13,43,23.90
2017,05,28,13,44,24.00
2017,05,28,13,45,24.00
2017,05,28,13,46,24.00
2017,05,28,13,47,24.00
2017,05,28,13,48,24.10
2017,05,28,13,49,24.10
2017,05,28,13,50,24.10
2017,05,28,13,51,24.20
2017,05,28,13,52,24.30
2017,05,28,13,53,24.30
2017,05,28,13,54,24.30
2017,05,28,13,55,24.40
2017,05,28,13,56,24.40
2017,05,28,13,57,24.30
2017,05,28,13,58,24.20
2017,05,28,13,59,24.20
2017,05,28,14,00,24.20
2017,05,28,14,01,24.20
2017,05,28,14,02,24.20
2017,05,28,14,03,24.20
2017,05,28,14,04,24.20
2017,05,28,14,05,24.20
2017,05,28,14,06,24.10
2017,05,28,14,07,24.20
2017,05,28,14,08,24.20
2017,05,28,14,09,24.20
2017,05,28,14,10,24.30
2017,05,28,14,11,24.30
2017,05,28,14,12,24.30
2017,05,28,14,13,24.30
2017,05,28,14,14,24.20
2017,05,28,14,15,24.20
2017,05,28,14,16,24.20
2017,05,28,14,17,24.20
2017,05,28,14,18,24.20
2017,05,28,14,19,24.20
2017,05,28,14,20,24.20
2017,05,28,14,21,24.20
2017,05,28,14,22,24.20
2017,05,28,14,23,24.20
2017,05,28,14,24,24.20
2017,05,28,14,25,24.30
2017,05,28,14,26,24.50
2017,05,28,14,27,24.50
2017,05,28,14,28,24.60
2017,05,28,14,29,24.60
2017,05,28,14,30,24.60
2017,05,28,14,31,24.60
2017,05,28,14,32,24.60
2017,05,28,14,33,24.70
2017,05,28,14,34,24.70
2017,05,28,14,35,24.70
2017,05,28,14,36,24.80
2017,05,28,14,37,24.80
2017,05,28,14,38,24.90
2017,05,28,14,39,25.00
2017,05,28,14,40,25.10
2017,05,28,14,41,25.20
2017,05,28,14,42,25.30
2017,05,28,14,43,25.30
2017,05,28,14,44,25.30
2017,05,28,14,45,25.30
2017,05,28,14,46,25.30
2017,05,28,14,47,25.40
2017,05,28,14,48,25.50
2017,05,28,14,49,25.50
2017,05,28,14,50,25.50
2017,05,28,14,51,25.60
2017,05,28,14,52,25.60
2017,05,28,14,53,25.60
2017,05,28,14,54,25.60
2017,05,28,14,55,25.60
2017,05,28,14,56,25.60
2017,05,28,14,57,25.60
2017,05,28,14,58,25.60
2017,05,28,14,59,25.60
2017,05,28,15,00,25.60
2017,05,28,15,01,25.60
2017,05,28,15,02,25.60
2017,05,28,15,03,25.60
2017,05,28,15,04,25.60
2017,05,28,15,05,25.60
2017,05,28,15,06,25.50
2017,05,28,15,07,25.50
2017,05,28,15,08,25.40
2017,05,28,15,09,25.40
2017,05,28,15,10,25.30
2017,05,28,15,11,25.30
2017,05,28,15,12,25.30
2017,05,28,15,13,25.40
2017,05,28,15,14,25.40
2017,05,28,15,15,25.40
2017,05,28,15,16,25.40
2017,05,28,15,17,25.40
2017,05,28,15,18,25.40
2017,05,28,15,19,25.40
2017,05,28,15,20,25.40
2017,05,28,15,21,25.40
2017,05,28,15,22,25.40
2017,05,28,15,23,25.40
2017,05,28,15,24,25.50
2017,05,28,15,25,25.40
2017,05,28,15,26,25.50
2017,05,28,15,27,25.50
2017,05,28,15,28,25.50
2017,05,28,15,29,25.50
2017,05,28,15,30,25.60
2017,05,28,15,31,25.60
2017,05,28,15,32,25.60
2017,05,28,15,33,25.60
2017,05,28,15,34,25.60
2017,05,28,15,35,25.60
2017,05,28,15,36,25.60
2017,05,28,15,37,25.60
2017,05,28,15,38,25.70
2017,05,28,15,39,25.80
2017,05,28,15,40,25.80
2017,05,28,15,41,25.90
2017,05,28,15,42,26.00
2017,05,28,15,43,26.10
2017,05,28,15,44,26.10
2017,05,28,15,45,26.10
2017,05,28,15,46,26.10
2017,05,28,15,47,26.10
2017,05,28,15,48,26.20
2017,05,28,15,49,26.20
2017,05,28,15,50,26.10
2017,05,28,15,51,26.10
2017,05,28,15,52,26.10
2017,05,28,15,53,26.10
2017,05,28,15,54,26.10
2017,05,28,15,55,26.10
2017,05,28,15,56,26.20
2017,05,28,15,57,26.20
2017,05,28,15,58,26.30
2017,05,28,15,59,26.30
2017,05,28,16,00,26.30
2017,05,28,16,01,26.30
2017,05,28,16,02,26.30
2017,05,28,16,03,26.20
2017,05,28,16,04,26.20
2017,05,28,16,05,26.20
2017,05,28,16,06,26.20
2017,05,28,16,07,26.30
2017,05,28,16,08,26.30
2017,05,28,16,09,26.30
2017,05,28,16,10,26.30
2017,05,28,16,11,26.30
2017,05,28,16,12,26.30
2017,05,28,16,13,26.30
2017,05,28,16,14,26.30
2017,05,28,16,15,26.40
2017,05,28,16,16,26.50
2017,05,28,16,17,26.50
2017,05,28,16,18,26.50
2017,05,28,16,19,26.50
2017,05,28,16,20,26.50
2017,05,28,16,21,26.50
2017,05,28,16,22,26.50
2017,05,28,16,23,26.50
2017,05,28,16,24,26.40
2017,05,28,16,25,26.40
2017,05,28,16,26,26.40
2017,05,28,16,27,26.30
2017,05,28,16,28,26.30
2017,05,28,16,29,26.30
2017,05,28,16,30,26.30
2017,05,28,16,31,26.30
2017,05,28,16,32,26.20
2017,05,28,16,33,26.20
2017,05,28,16,34,26.20
2017,05,28,16,35,26.20
2017,05,28,16,36,26.20
2017,05,28,16,37,26.20
2017,05,28,16,38,26.20
2017,05,28,16,39,26.20
2017,05,28,16,40,26.20
2017,05,28,16,41,26.20
2017,05,28,16,42,26.20
2017,05,28,16,43,26.20
2017,05,28,16,44,26.20
2017,05,28,16,45,26.10
2017,05,28,16,46,26.10
2017,05,28,16,47,26.10
2017,05,28,16,48,26.10
2017,05,28,16,49,26.10
2017,05,28,16,50,26.10
2017,05,28,16,51,26.10
2017,05,28,16,52,26.10
2017,05,28,16,53,26.10
2017,05,28,16,54,26.10
2017,05,28,16,55,26.10
2017,05,28,16,56,26.10
2017,05,28,16,57,26.10
2017,05,28,16,58,26.20
2017,05,28,16,59,26.20
2017,05,28,17,00,26.20
2017,05,28,17,01,26.10
2017,05,28,17,02,26.10
2017,05,28,17,03,26.10
2017,05,28,17,04,26.10
2017,05,28,17,05,26.10
2017,05,28,17,06,26.20
2017,05,28,17,07,26.20
2017,05,28,17,08,26.20
2017,05,28,17,09,26.30
2017,05,28,17,10,26.40
2017,05,28,17,11,26.40
2017,05,28,17,12,26.40
2017,05,28,17,13,26.50
2017,05,28,17,14,26.50
2017,05,28,17,15,26.60
2017,05,28,17,16,26.70
2017,05,28,17,17,26.80
2017,05,28,17,18,26.80
2017,05,28,17,19,26.80